GALAXY 17 (G-17)

Last updated on Mon Sep 14 2026 00:02:57 GMT+0000 (Coordinated Universal Time)

1 31307U 07016B 26256.56042041 -.00000216 00000+0 00000+0 0 9999 2 31307 3.1890 78.7219 0003026 120.3676 270.2131 1.00271795 70697
UTC large
Height (km)
Speed (km/s)
/
Latitude / Longitude
Inclination (degrees)
Orbital Period (minutes)
Azimuth
Elevation
Range (km)
Doppler Factor

Next 0 passes for location: London (51.5072 / 0.1276)

No passes found over London.
GALAXY 17 (G-17)